CEB279 RPLL-WADD

Flight info

Callsign CEB279
Flight time 3h 27m
Altitude 34000
Route BUCAL2R BUCAL M646 VJN M522 ELANG/N0454F350 M522 DOBMA
Aircraft A21N/M-SDE2E3FGHIRWXY/LB1

Departure

Time 2026-05-04 23:36
Airport Ninoy Aquino International Airport (RPLL)

Arrival

Time 2026-05-05 03:04
Airport Denpasar I Gusti Ngurah Rai International Airport (WADD)
Time Latitude Longitude Altitude Speed Heading
2026-05-04 23:03 14.52233 121.00940 74 ft 0 kts 45°
2026-05-04 23:22 14.52223 121.00930 64 ft 4 kts 45°
2026-05-04 23:22 14.52204 121.00910 64 ft 4 kts 45°
2026-05-04 23:22 14.52187 121.00892 66 ft 2 kts 45°
2026-05-04 23:22 14.52173 121.00872 64 ft 4 kts 78°
2026-05-04 23:23 14.52176 121.00849 68 ft 4 kts 126°
2026-05-04 23:23 14.52178 121.00846 67 ft 4 kts 135°
2026-05-04 23:23 14.52160 121.00864 71 ft 1 kts 135°
2026-05-04 23:25 14.52146 121.00879 70 ft 5 kts 134°
2026-05-04 23:25 14.52116 121.00908 66 ft 7 kts 136°
2026-05-04 23:26 14.52078 121.00947 74 ft 9 kts 134°
2026-05-04 23:26 14.52030 121.00998 74 ft 11 kts 136°
2026-05-04 23:26 14.51971 121.01058 74 ft 13 kts 134°
2026-05-04 23:26 14.51903 121.01130 70 ft 15 kts 135°
2026-05-04 23:27 14.51825 121.01209 64 ft 16 kts 136°
2026-05-04 23:27 14.51742 121.01295 74 ft 18 kts 134°
2026-05-04 23:27 14.51653 121.01387 65 ft 19 kts 135°
2026-05-04 23:27 14.51559 121.01484 74 ft 20 kts 136°
2026-05-04 23:28 14.51460 121.01586 69 ft 21 kts 134°
2026-05-04 23:28 14.51356 121.01693 74 ft 22 kts 135°
2026-05-04 23:28 14.51310 121.01740 74 ft 7 kts 135°
2026-05-04 23:28 14.51270 121.01781 69 ft 10 kts 134°
2026-05-04 23:29 14.51205 121.01848 74 ft 16 kts 135°
2026-05-04 23:29 14.51154 121.01901 72 ft 12 kts 134°
2026-05-04 23:29 14.51079 121.01977 71 ft 15 kts 137°
2026-05-04 23:29 14.51031 121.01973 74 ft 10 kts 227°
2026-05-04 23:30 14.50988 121.01891 65 ft 16 kts 241°
2026-05-04 23:30 14.50927 121.01782 73 ft 19 kts 241°
2026-05-04 23:30 14.50854 121.01652 72 ft 22 kts 240°
2026-05-04 23:30 14.50775 121.01511 70 ft 23 kts 239°
2026-05-04 23:31 14.50692 121.01363 74 ft 24 kts 241°
2026-05-04 23:31 14.50608 121.01210 72 ft 25 kts 240°
2026-05-04 23:31 14.50523 121.01057 74 ft 24 kts 240°
2026-05-04 23:31 14.50439 121.00906 68 ft 25 kts 240°
2026-05-04 23:32 14.50361 121.00767 73 ft 15 kts 242°
2026-05-04 23:32 14.50310 121.00674 64 ft 15 kts 239°
2026-05-04 23:32 14.50257 121.00579 73 ft 16 kts 241°
2026-05-04 23:32 14.50205 121.00501 70 ft 5 kts 243°
2026-05-04 23:33 14.50176 121.00433 73 ft 15 kts 239°
2026-05-04 23:33 14.50125 121.00341 71 ft 14 kts 237°
2026-05-04 23:33 14.50110 121.00317 74 ft 0 kts 237°
2026-05-04 23:33 14.50094 121.00288 64 ft 6 kts 242°
2026-05-04 23:34 14.50072 121.00245 68 ft 8 kts 241°
2026-05-04 23:34 14.50042 121.00193 74 ft 9 kts 240°
2026-05-04 23:34 14.50008 121.00131 71 ft 11 kts 240°
2026-05-04 23:34 14.49967 121.00058 70 ft 13 kts 240°
2026-05-04 23:35 14.49916 120.99980 75 ft 14 kts 217°
2026-05-04 23:35 14.49823 120.99995 72 ft 15 kts 139°
2026-05-04 23:35 14.49836 121.00099 69 ft 24 kts 61°
2026-05-04 23:35 14.50026 121.00442 72 ft 89 kts 60°
2026-05-04 23:36 14.50448 121.01200 66 ft 147 kts 59°
2026-05-04 23:36 14.51026 121.02240 195 ft 177 kts 60°
2026-05-04 23:36 14.51638 121.03361 697 ft 179 kts 60°
2026-05-04 23:36 14.52253 121.04472 1305 ft 178 kts 60°
2026-05-04 23:37 14.52868 121.05587 1880 ft 180 kts 60°
2026-05-04 23:37 14.53480 121.06716 2454 ft 180 kts 61°
2026-05-04 23:37 14.54097 121.07841 3041 ft 179 kts 61°
2026-05-04 23:37 14.54707 121.08955 3614 ft 178 kts 62°
2026-05-04 23:38 14.55318 121.10060 4139 ft 177 kts 62°
2026-05-04 23:38 14.55932 121.11166 4672 ft 178 kts 63°
2026-05-04 23:38 14.56545 121.12277 5132 ft 179 kts 63°
2026-05-04 23:38 14.57169 121.13393 5573 ft 180 kts 63°
2026-05-04 23:39 14.57540 121.14602 5930 ft 179 kts 96°
2026-05-04 23:39 14.56971 121.15715 6235 ft 184 kts 140°
2026-05-04 23:39 14.55772 121.16215 6560 ft 192 kts 172°
2026-05-04 23:39 14.54408 121.16089 6908 ft 206 kts 190°
2026-05-04 23:40 14.53499 121.15709 7112 ft 220 kts 204°
2026-05-04 23:40 14.52135 121.14883 7503 ft 235 kts 207°
2026-05-04 23:40 14.50695 121.13987 7864 ft 250 kts 207°
2026-05-04 23:40 14.49138 121.13025 8085 ft 270 kts 207°
2026-05-04 23:41 14.47476 121.12001 8406 ft 285 kts 207°
2026-05-04 23:41 14.45747 121.10934 8917 ft 292 kts 207°
2026-05-04 23:41 14.43997 121.09851 9586 ft 295 kts 207°
2026-05-04 23:41 14.41642 121.08392 10259 ft 306 kts 208°
2026-05-04 23:42 14.40387 121.07617 10443 ft 317 kts 207°
2026-05-04 23:42 14.38443 121.06420 10680 ft 334 kts 208°
2026-05-04 23:42 14.36405 121.05161 10942 ft 349 kts 208°
2026-05-04 23:42 14.34294 121.03861 11356 ft 357 kts 208°
2026-05-04 23:43 14.32144 121.02536 11799 ft 361 kts 208°
2026-05-04 23:43 14.29983 121.01203 12230 ft 364 kts 208°
2026-05-04 23:43 14.27794 120.99856 12803 ft 368 kts 208°
2026-05-04 23:43 14.25587 120.98494 13378 ft 372 kts 208°
2026-05-04 23:44 14.23357 120.97116 13899 ft 376 kts 208°
2026-05-04 23:44 14.21103 120.95727 14413 ft 378 kts 209°
2026-05-04 23:44 14.18870 120.94350 14941 ft 380 kts 209°
2026-05-04 23:44 14.16596 120.92947 15492 ft 382 kts 210°
2026-05-04 23:45 14.14309 120.91541 16025 ft 384 kts 209°
2026-05-04 23:45 14.12005 120.90123 16557 ft 387 kts 210°
2026-05-04 23:45 14.09687 120.88698 17065 ft 389 kts 210°
2026-05-04 23:45 14.07354 120.87260 17567 ft 392 kts 210°
2026-05-04 23:46 14.05001 120.85818 18075 ft 395 kts 210°
2026-05-04 23:46 14.02638 120.84363 18528 ft 397 kts 210°
2026-05-04 23:46 14.00262 120.82901 18967 ft 399 kts 210°
2026-05-04 23:46 13.97869 120.81435 19403 ft 401 kts 209°
2026-05-04 23:47 13.95469 120.79963 19843 ft 403 kts 210°
2026-05-04 23:47 13.93052 120.78485 20268 ft 405 kts 210°
2026-05-04 23:47 13.90621 120.76997 20684 ft 408 kts 210°
2026-05-04 23:47 13.88179 120.75500 21094 ft 409 kts 210°
2026-05-04 23:48 13.85728 120.73995 21509 ft 411 kts 210°
2026-05-04 23:48 13.83263 120.72484 21918 ft 413 kts 210°
2026-05-04 23:48 13.80787 120.70968 22306 ft 416 kts 210°
2026-05-04 23:48 13.78293 120.69443 22709 ft 418 kts 210°
2026-05-04 23:49 13.75787 120.67905 23062 ft 421 kts 210°
2026-05-04 23:49 13.73271 120.66357 23472 ft 422 kts 210°
2026-05-04 23:49 13.70742 120.64805 23813 ft 424 kts 210°
2026-05-04 23:49 13.68206 120.63250 24124 ft 426 kts 210°
2026-05-04 23:50 13.65652 120.61686 24419 ft 428 kts 210°
2026-05-04 23:50 13.63088 120.60118 24712 ft 431 kts 210°
2026-05-04 23:50 13.60503 120.58550 25036 ft 432 kts 208°
2026-05-04 23:50 13.57815 120.57165 25359 ft 433 kts 204°
2026-05-04 23:51 13.55121 120.55865 25661 ft 435 kts 204°
2026-05-04 23:51 13.52368 120.54546 25884 ft 439 kts 204°
2026-05-04 23:51 13.49596 120.53213 26155 ft 441 kts 204°
2026-05-04 23:51 13.46807 120.51870 26445 ft 444 kts 204°
2026-05-04 23:52 13.44008 120.50524 26740 ft 446 kts 204°
2026-05-04 23:52 13.41194 120.49170 27025 ft 448 kts 204°
2026-05-04 23:52 13.38367 120.47813 27308 ft 450 kts 204°
2026-05-04 23:52 13.35525 120.46445 27592 ft 452 kts 204°
2026-05-04 23:53 13.32675 120.45074 27868 ft 454 kts 204°
2026-05-04 23:53 13.29811 120.43698 28139 ft 455 kts 204°
2026-05-04 23:53 13.26935 120.42318 28399 ft 457 kts 204°
2026-05-04 23:53 13.24048 120.40929 28666 ft 459 kts 204°
2026-05-04 23:54 13.21147 120.39537 28932 ft 461 kts 204°
2026-05-04 23:54 13.18241 120.38142 29210 ft 462 kts 204°
2026-05-04 23:54 13.15320 120.36737 29475 ft 464 kts 204°
2026-05-04 23:54 13.12404 120.35333 29790 ft 464 kts 204°
2026-05-04 23:55 13.09484 120.33929 30088 ft 463 kts 204°
2026-05-04 23:55 13.06563 120.32531 30346 ft 463 kts 204°
2026-05-04 23:55 13.00744 120.29744 30948 ft 460 kts 204°
2026-05-04 23:56 12.97847 120.28357 31212 ft 459 kts 204°
2026-05-04 23:56 12.94952 120.26967 31445 ft 460 kts 205°
2026-05-04 23:56 12.92057 120.25576 31674 ft 460 kts 205°
2026-05-04 23:56 12.89157 120.24188 31925 ft 459 kts 205°
2026-05-04 23:57 12.86261 120.22806 32171 ft 459 kts 205°
2026-05-04 23:57 12.83370 120.21428 32416 ft 458 kts 205°
2026-05-04 23:57 12.80481 120.20047 32651 ft 458 kts 205°
2026-05-04 23:57 12.77597 120.18667 32886 ft 457 kts 205°
2026-05-04 23:58 12.74713 120.17288 33113 ft 457 kts 205°
2026-05-04 23:58 12.71832 120.15913 33333 ft 457 kts 205°
2026-05-04 23:58 12.68953 120.14538 33553 ft 456 kts 205°
2026-05-04 23:58 12.66081 120.13164 33749 ft 456 kts 205°
2026-05-04 23:59 12.63200 120.11786 33874 ft 457 kts 205°
2026-05-04 23:59 12.57433 120.09030 33932 ft 457 kts 205°
2026-05-05 00:00 12.51671 120.06284 33906 ft 457 kts 205°
2026-05-05 00:00 12.45954 120.03557 33907 ft 456 kts 205°
2026-05-05 00:01 12.40202 120.00813 33905 ft 456 kts 205°
2026-05-05 00:01 12.34441 119.98067 33901 ft 457 kts 205°
2026-05-05 00:02 12.28681 119.95321 33902 ft 457 kts 205°
2026-05-05 00:02 12.22917 119.92575 33903 ft 457 kts 205°
2026-05-05 00:03 12.17155 119.89835 33906 ft 457 kts 205°
2026-05-05 00:03 12.11395 119.87095 33906 ft 457 kts 205°
2026-05-05 00:04 12.05629 119.84354 33901 ft 457 kts 205°
2026-05-05 00:04 11.99865 119.81614 33905 ft 456 kts 205°
2026-05-05 00:05 11.94126 119.78891 33902 ft 454 kts 205°
2026-05-05 00:05 11.88395 119.76169 33902 ft 454 kts 205°
2026-05-05 00:06 11.82665 119.73448 33904 ft 454 kts 205°
2026-05-05 00:06 11.76938 119.70731 33902 ft 454 kts 205°
2026-05-05 00:07 11.71194 119.68011 33900 ft 456 kts 205°
2026-05-05 00:07 11.65430 119.65306 33899 ft 456 kts 204°
2026-05-05 00:08 11.59649 119.62631 33905 ft 456 kts 204°
2026-05-05 00:08 11.53872 119.59957 33906 ft 456 kts 204°
2026-05-05 00:09 11.48100 119.57277 33905 ft 456 kts 204°
2026-05-05 00:09 11.42330 119.54600 33905 ft 455 kts 205°
2026-05-05 00:10 11.36604 119.51948 33902 ft 455 kts 205°
2026-05-05 00:10 11.30837 119.49277 33904 ft 455 kts 205°
2026-05-05 00:11 11.25025 119.46579 33910 ft 463 kts 205°
2026-05-05 00:11 11.19101 119.43834 33906 ft 472 kts 205°
2026-05-05 00:12 11.13081 119.41047 33905 ft 478 kts 205°
2026-05-05 00:12 11.07009 119.38243 33902 ft 480 kts 205°
2026-05-05 00:13 11.00931 119.35434 33899 ft 479 kts 205°
2026-05-05 00:13 10.94854 119.32630 33899 ft 480 kts 205°
2026-05-05 00:14 10.88778 119.29825 33903 ft 479 kts 205°
2026-05-05 00:14 10.82704 119.27023 33901 ft 479 kts 205°
2026-05-05 00:15 10.76640 119.24225 33898 ft 478 kts 205°
2026-05-05 00:15 10.70576 119.21428 33900 ft 479 kts 205°
2026-05-05 00:16 10.64507 119.18630 33901 ft 479 kts 205°
2026-05-05 00:16 10.58480 119.15850 33899 ft 479 kts 205°
2026-05-05 00:17 10.52408 119.13056 33898 ft 478 kts 205°
2026-05-05 00:17 10.46347 119.10269 33898 ft 478 kts 205°
2026-05-05 00:18 10.40281 119.07470 33899 ft 478 kts 205°
2026-05-05 00:18 10.34224 119.04684 33897 ft 478 kts 205°
2026-05-05 00:19 10.28159 119.01899 33899 ft 478 kts 205°
2026-05-05 00:19 10.22098 118.99114 33897 ft 478 kts 205°
2026-05-05 00:20 10.16032 118.96327 33895 ft 478 kts 205°
2026-05-05 00:20 10.09972 118.93543 33897 ft 478 kts 205°
2026-05-05 00:21 10.03905 118.90758 33897 ft 478 kts 205°
2026-05-05 00:21 9.97849 118.87980 33895 ft 478 kts 204°
2026-05-05 00:22 9.91783 118.85198 33890 ft 479 kts 204°
2026-05-05 00:22 9.85717 118.82419 33894 ft 479 kts 204°
2026-05-05 00:23 9.79638 118.79632 33908 ft 479 kts 205°
2026-05-05 00:23 9.73604 118.76764 33902 ft 479 kts 210°
2026-05-05 00:24 9.68155 118.72875 33905 ft 479 kts 217°
2026-05-05 00:24 9.62809 118.68918 33902 ft 479 kts 216°
2026-05-05 00:25 9.57386 118.64966 33903 ft 481 kts 215°
2026-05-05 00:25 9.51948 118.61013 33909 ft 481 kts 216°
2026-05-05 00:26 9.46512 118.57056 33915 ft 481 kts 216°
2026-05-05 00:26 9.41066 118.53109 33917 ft 481 kts 216°
2026-05-05 00:27 9.35631 118.49157 33918 ft 481 kts 216°
2026-05-05 00:27 9.30191 118.45204 33914 ft 482 kts 215°
2026-05-05 00:28 9.24735 118.41245 33913 ft 482 kts 215°
2026-05-05 00:28 9.19280 118.37291 33913 ft 482 kts 215°
2026-05-05 00:29 9.13826 118.33336 33910 ft 482 kts 215°
2026-05-05 00:29 9.09298 118.30051 33913 ft 482 kts 215°
2026-05-05 00:30 9.03844 118.26109 33908 ft 482 kts 215°
2026-05-05 00:30 8.98382 118.22174 33911 ft 483 kts 215°
2026-05-05 00:31 8.92895 118.18230 33911 ft 484 kts 215°
2026-05-05 00:31 8.87416 118.14280 33909 ft 484 kts 215°
2026-05-05 00:32 8.81935 118.10330 33911 ft 484 kts 215°
2026-05-05 00:32 8.76450 118.06391 33915 ft 484 kts 215°
2026-05-05 00:33 8.70984 118.02451 33910 ft 482 kts 215°
2026-05-05 00:33 8.65538 117.98537 33909 ft 486 kts 215°
2026-05-05 00:34 8.60021 117.94565 33911 ft 487 kts 215°
2026-05-05 00:34 8.54492 117.90592 33910 ft 487 kts 215°
2026-05-05 00:35 8.48964 117.86625 33906 ft 489 kts 215°
2026-05-05 00:35 8.43439 117.82652 33900 ft 487 kts 215°
2026-05-05 00:36 8.37916 117.78686 33899 ft 487 kts 215°
2026-05-05 00:36 8.32397 117.74729 33899 ft 487 kts 215°
2026-05-05 00:37 8.26878 117.70773 33899 ft 486 kts 215°
2026-05-05 00:37 8.21359 117.66812 33900 ft 487 kts 215°
2026-05-05 00:38 8.15835 117.62864 33896 ft 486 kts 215°
2026-05-05 00:38 8.10314 117.58903 33899 ft 486 kts 215°
2026-05-05 00:39 8.04801 117.54953 33901 ft 484 kts 215°
2026-05-05 00:39 7.99327 117.51032 33899 ft 482 kts 215°
2026-05-05 00:40 7.93859 117.47112 33900 ft 482 kts 215°
2026-05-05 00:40 7.88406 117.43200 33901 ft 486 kts 214°
2026-05-05 00:41 7.82889 117.39257 33900 ft 485 kts 214°
2026-05-05 00:41 7.77375 117.35315 33898 ft 486 kts 214°
2026-05-05 00:42 7.71877 117.31385 33898 ft 481 kts 214°
2026-05-05 00:42 7.66411 117.27492 33899 ft 481 kts 214°
2026-05-05 00:43 7.60926 117.23623 33899 ft 481 kts 214°
2026-05-05 00:43 7.55442 117.19754 33900 ft 481 kts 214°
2026-05-05 00:44 7.49965 117.15884 33899 ft 479 kts 214°
2026-05-05 00:44 7.44514 117.12032 33897 ft 477 kts 214°
2026-05-05 00:45 7.39053 117.08180 33899 ft 482 kts 215°
2026-05-05 00:45 7.33542 117.04287 33900 ft 484 kts 215°
2026-05-05 00:46 7.28025 117.00394 33896 ft 484 kts 215°
2026-05-05 00:46 7.22509 116.96502 33896 ft 484 kts 215°
2026-05-05 00:47 7.16991 116.92611 33897 ft 484 kts 215°
2026-05-05 00:47 7.11472 116.88722 33897 ft 484 kts 215°
2026-05-05 00:48 7.05984 116.84856 33897 ft 486 kts 215°
2026-05-05 00:48 7.00442 116.80951 33878 ft 487 kts 215°
2026-05-05 00:49 6.94896 116.77043 33879 ft 487 kts 215°
2026-05-05 00:49 6.89347 116.73135 33877 ft 487 kts 215°
2026-05-05 00:50 6.83798 116.69229 33883 ft 487 kts 215°
2026-05-05 00:50 6.78251 116.65325 33885 ft 485 kts 215°
2026-05-05 00:51 6.72723 116.61436 33892 ft 485 kts 215°
2026-05-05 00:51 6.67202 116.57554 33896 ft 485 kts 215°
2026-05-05 00:52 6.61676 116.53669 33900 ft 485 kts 215°
2026-05-05 00:52 6.56142 116.49776 33897 ft 485 kts 215°
2026-05-05 00:53 6.50603 116.45896 33897 ft 485 kts 215°
2026-05-05 00:53 6.45068 116.42014 33899 ft 485 kts 215°
2026-05-05 00:54 6.39532 116.38134 33903 ft 485 kts 215°
2026-05-05 00:54 6.33995 116.34254 33907 ft 485 kts 215°
2026-05-05 00:55 6.28459 116.30374 33909 ft 485 kts 215°
2026-05-05 00:55 6.22923 116.26497 33896 ft 485 kts 215°
2026-05-05 00:56 6.17386 116.22618 33898 ft 486 kts 215°
2026-05-05 00:56 6.11838 116.18734 33884 ft 485 kts 215°
2026-05-05 00:57 6.06329 116.14880 33883 ft 486 kts 215°
2026-05-05 00:57 6.00784 116.10997 33877 ft 486 kts 215°
2026-05-05 00:58 5.95236 116.07117 33877 ft 485 kts 215°
2026-05-05 00:58 5.89440 116.03663 33872 ft 487 kts 200°
2026-05-05 00:58 5.86165 116.02806 33878 ft 486 kts 189°
2026-05-05 00:59 5.82821 116.02329 33881 ft 485 kts 187°
2026-05-05 00:59 5.76114 116.01453 33872 ft 487 kts 187°
2026-05-05 01:00 5.69405 116.00526 33867 ft 487 kts 187°
2026-05-05 01:00 5.62694 115.99584 33866 ft 487 kts 187°
2026-05-05 01:01 5.55987 115.98638 33872 ft 487 kts 187°
2026-05-05 01:01 5.49276 115.97706 33873 ft 487 kts 187°
2026-05-05 01:02 5.42581 115.96771 33886 ft 484 kts 187°
2026-05-05 01:02 5.35918 115.95837 33887 ft 484 kts 187°
2026-05-05 01:03 5.29252 115.94905 33896 ft 483 kts 187°
2026-05-05 01:03 5.22615 115.93973 33900 ft 481 kts 187°
2026-05-05 01:04 5.15982 115.93119 33905 ft 481 kts 187°
2026-05-05 01:04 5.06063 115.91851 33924 ft 478 kts 187°
2026-05-05 01:05 4.99461 115.91001 33922 ft 479 kts 187°
2026-05-05 01:05 4.92911 115.90156 33941 ft 477 kts 187°
2026-05-05 01:06 4.86314 115.89299 33939 ft 478 kts 187°
2026-05-05 01:06 4.79728 115.88394 33960 ft 477 kts 187°
2026-05-05 01:07 4.73116 115.87491 33964 ft 481 kts 187°
2026-05-05 01:07 4.66475 115.86580 33963 ft 481 kts 187°
2026-05-05 01:08 4.59839 115.85675 33980 ft 482 kts 187°
2026-05-05 01:08 4.53198 115.84766 33980 ft 482 kts 187°
2026-05-05 01:09 4.46555 115.83861 33989 ft 482 kts 187°
2026-05-05 01:09 4.39911 115.82957 33991 ft 482 kts 187°
2026-05-05 01:10 4.33268 115.82052 34000 ft 482 kts 187°
2026-05-05 01:10 4.26618 115.81146 34000 ft 482 kts 187°
2026-05-05 01:11 4.19976 115.80240 34003 ft 482 kts 187°
2026-05-05 01:11 4.13374 115.79340 34002 ft 482 kts 187°
2026-05-05 01:12 4.06765 115.78345 33998 ft 479 kts 189°
2026-05-05 01:12 4.00221 115.77099 33998 ft 479 kts 190°
2026-05-05 01:13 3.93679 115.75844 34000 ft 479 kts 189°
2026-05-05 01:13 3.87136 115.74596 33999 ft 479 kts 189°
2026-05-05 01:14 3.80593 115.73348 34001 ft 479 kts 189°
2026-05-05 01:14 3.74051 115.72104 34001 ft 479 kts 189°
2026-05-05 01:15 3.67507 115.70858 34001 ft 479 kts 189°
2026-05-05 01:15 3.60968 115.69607 34000 ft 479 kts 189°
2026-05-05 01:16 3.54423 115.68361 34002 ft 479 kts 189°
2026-05-05 01:16 3.47881 115.67118 34001 ft 479 kts 189°
2026-05-05 01:17 3.41338 115.65870 33994 ft 479 kts 189°
2026-05-05 01:17 3.34787 115.64623 33992 ft 479 kts 189°
2026-05-05 01:18 3.28234 115.63374 33989 ft 479 kts 189°
2026-05-05 01:18 3.22787 115.62335 33992 ft 480 kts 189°
2026-05-05 01:19 3.16228 115.61090 33989 ft 480 kts 189°
2026-05-05 01:19 3.09667 115.59839 33987 ft 480 kts 189°
2026-05-05 01:20 3.03089 115.58593 33987 ft 482 kts 189°
2026-05-05 01:20 2.96492 115.57335 33982 ft 483 kts 189°
2026-05-05 01:21 2.89895 115.56077 33982 ft 483 kts 189°
2026-05-05 01:21 2.83299 115.54820 33984 ft 483 kts 189°
2026-05-05 01:22 2.76702 115.53566 33983 ft 482 kts 189°
2026-05-05 01:22 2.70109 115.52312 33980 ft 482 kts 189°
2026-05-05 01:23 2.63564 115.51067 33986 ft 482 kts 189°
2026-05-05 01:23 2.56971 115.49814 33986 ft 482 kts 189°
2026-05-05 01:24 2.50379 115.48564 33987 ft 482 kts 189°
2026-05-05 01:24 2.43790 115.47307 33983 ft 482 kts 189°
2026-05-05 01:25 2.37200 115.46057 33985 ft 482 kts 189°
2026-05-05 01:25 2.30598 115.44803 33987 ft 483 kts 189°
2026-05-05 01:26 2.24003 115.43550 33986 ft 483 kts 189°
2026-05-05 01:26 2.17404 115.42293 33982 ft 483 kts 189°
2026-05-05 01:27 2.10807 115.41038 33982 ft 483 kts 189°
2026-05-05 01:27 2.04207 115.39785 33988 ft 483 kts 189°
2026-05-05 01:28 1.97607 115.38530 33987 ft 483 kts 189°
2026-05-05 01:28 1.91014 115.37276 33989 ft 482 kts 189°
2026-05-05 01:29 1.84459 115.36031 33989 ft 483 kts 189°
2026-05-05 01:29 1.77860 115.34781 33987 ft 483 kts 189°
2026-05-05 01:30 1.71263 115.33535 33983 ft 483 kts 189°
2026-05-05 01:30 1.64658 115.32280 33989 ft 484 kts 189°
2026-05-05 01:31 1.58043 115.31013 33990 ft 484 kts 189°
2026-05-05 01:31 1.51423 115.29756 33982 ft 484 kts 189°
2026-05-05 01:32 1.44805 115.28500 33981 ft 484 kts 189°
2026-05-05 01:32 1.38188 115.27241 33982 ft 484 kts 189°
2026-05-05 01:33 1.31563 115.25983 33980 ft 485 kts 189°
2026-05-05 01:33 1.24982 115.24739 33979 ft 485 kts 189°
2026-05-05 01:34 1.18356 115.23476 33976 ft 485 kts 189°
2026-05-05 01:34 1.11726 115.22215 33976 ft 485 kts 189°
2026-05-05 01:35 1.05097 115.20959 33980 ft 485 kts 189°
2026-05-05 01:35 0.98470 115.19701 33979 ft 485 kts 189°
2026-05-05 01:36 0.91841 115.18441 33969 ft 485 kts 189°
2026-05-05 01:36 0.85212 115.17186 33971 ft 485 kts 189°
2026-05-05 01:37 0.78584 115.15926 33967 ft 485 kts 189°
2026-05-05 01:37 0.71953 115.14670 33968 ft 485 kts 189°
2026-05-05 01:38 0.65322 115.13413 33960 ft 485 kts 189°
2026-05-05 01:38 0.58699 115.12150 33958 ft 484 kts 189°
2026-05-05 01:39 0.52076 115.10892 33955 ft 484 kts 189°
2026-05-05 01:39 0.45455 115.09639 33956 ft 484 kts 189°
2026-05-05 01:40 0.38834 115.08380 33952 ft 484 kts 189°
2026-05-05 01:40 0.32211 115.07126 33954 ft 484 kts 189°
2026-05-05 01:41 0.25593 115.05870 33949 ft 484 kts 189°
2026-05-05 01:41 0.18975 115.04613 33951 ft 484 kts 189°
2026-05-05 01:42 0.12398 115.03366 33953 ft 484 kts 189°
2026-05-05 01:42 0.05779 115.02106 33954 ft 484 kts 189°
2026-05-05 01:43 -0.00839 115.00851 33948 ft 485 kts 189°
2026-05-05 01:43 -0.07471 114.99594 33949 ft 485 kts 189°
2026-05-05 01:44 -0.14102 114.98345 33945 ft 485 kts 189°
2026-05-05 01:44 -0.20736 114.97084 33944 ft 485 kts 189°
2026-05-05 01:45 -0.27367 114.95829 33943 ft 485 kts 189°
2026-05-05 01:45 -0.33999 114.94572 33941 ft 485 kts 189°
2026-05-05 01:46 -0.40634 114.93314 33938 ft 485 kts 189°
2026-05-05 01:46 -0.47265 114.92055 33934 ft 485 kts 189°
2026-05-05 01:47 -0.53893 114.90795 33935 ft 485 kts 189°
2026-05-05 01:47 -0.60526 114.89536 33930 ft 485 kts 189°
2026-05-05 01:48 -0.67158 114.88279 33934 ft 485 kts 189°
2026-05-05 01:48 -0.73781 114.87022 33933 ft 484 kts 189°
2026-05-05 01:49 -0.80349 114.85779 33928 ft 483 kts 189°
2026-05-05 01:49 -0.86957 114.84527 33930 ft 483 kts 189°
2026-05-05 01:50 -0.93591 114.83487 33928 ft 482 kts 180°
2026-05-05 01:50 -1.00287 114.83650 33932 ft 481 kts 177°
2026-05-05 01:51 -1.06984 114.83877 33927 ft 482 kts 177°
2026-05-05 01:51 -1.13702 114.84089 33928 ft 483 kts 177°
2026-05-05 01:52 -1.20418 114.84298 33932 ft 483 kts 177°
2026-05-05 01:52 -1.27136 114.84509 33935 ft 483 kts 177°
2026-05-05 01:53 -1.33851 114.84723 33931 ft 483 kts 177°
2026-05-05 01:53 -1.40572 114.84936 33930 ft 483 kts 177°
2026-05-05 01:54 -1.47297 114.85148 33932 ft 484 kts 177°
2026-05-05 01:54 -1.54024 114.85358 33926 ft 484 kts 177°
2026-05-05 01:55 -1.60747 114.85572 33927 ft 484 kts 177°
2026-05-05 01:55 -1.67478 114.85782 33923 ft 484 kts 177°
2026-05-05 01:56 -1.74204 114.85993 33925 ft 484 kts 177°
2026-05-05 01:56 -1.80954 114.86207 33922 ft 486 kts 177°
2026-05-05 01:57 -1.87710 114.86416 33919 ft 486 kts 177°
2026-05-05 01:57 -1.94423 114.86628 33918 ft 486 kts 177°
2026-05-05 01:58 -2.01222 114.86843 33917 ft 486 kts 177°
2026-05-05 01:58 -2.07939 114.87055 33917 ft 486 kts 177°
2026-05-05 01:59 -2.14628 114.87267 33913 ft 478 kts 176°
2026-05-05 01:59 -2.21275 114.87476 33914 ft 478 kts 176°
2026-05-05 02:00 -2.27925 114.87680 33910 ft 478 kts 176°
2026-05-05 02:00 -2.34575 114.87890 33914 ft 478 kts 176°
2026-05-05 02:01 -2.41225 114.88103 33908 ft 478 kts 176°
2026-05-05 02:01 -2.47876 114.88309 33909 ft 478 kts 176°
2026-05-05 02:02 -2.54529 114.88515 33905 ft 478 kts 176°
2026-05-05 02:02 -2.61181 114.88725 33906 ft 478 kts 176°
2026-05-05 02:03 -2.67833 114.88933 33903 ft 478 kts 176°
2026-05-05 02:03 -2.74487 114.89145 33902 ft 478 kts 176°
2026-05-05 02:04 -2.81140 114.89356 33901 ft 478 kts 176°
2026-05-05 02:04 -2.87796 114.89567 33899 ft 478 kts 176°
2026-05-05 02:05 -2.94451 114.89776 33898 ft 479 kts 176°
2026-05-05 02:05 -3.01063 114.89976 33896 ft 479 kts 176°
2026-05-05 02:06 -3.07721 114.90182 33897 ft 478 kts 176°
2026-05-05 02:06 -3.14377 114.90394 33898 ft 478 kts 176°
2026-05-05 02:07 -3.21031 114.90604 33898 ft 479 kts 176°
2026-05-05 02:07 -3.27686 114.90813 33901 ft 479 kts 176°
2026-05-05 02:08 -3.34345 114.91024 33900 ft 478 kts 176°
2026-05-05 02:08 -3.40999 114.91231 33901 ft 478 kts 176°
2026-05-05 02:09 -3.46533 114.91406 33904 ft 478 kts 176°
2026-05-05 02:09 -3.53165 114.91615 33893 ft 477 kts 176°
2026-05-05 02:10 -3.59793 114.91824 33893 ft 476 kts 176°
2026-05-05 02:10 -3.66420 114.92035 33896 ft 476 kts 176°
2026-05-05 02:11 -3.73044 114.92243 33893 ft 476 kts 176°
2026-05-05 02:11 -3.79672 114.92452 33902 ft 476 kts 176°
2026-05-05 02:12 -3.89579 114.92763 33905 ft 474 kts 176°
2026-05-05 02:13 -3.96179 114.92973 33905 ft 474 kts 176°
2026-05-05 02:13 -4.02774 114.93179 33909 ft 474 kts 176°
2026-05-05 02:14 -4.09367 114.93388 33908 ft 474 kts 176°
2026-05-05 02:14 -4.15961 114.93599 33906 ft 474 kts 176°
2026-05-05 02:15 -4.22567 114.93808 33909 ft 475 kts 176°
2026-05-05 02:15 -4.29125 114.94015 33908 ft 475 kts 176°
2026-05-05 02:16 -4.35727 114.94264 33907 ft 475 kts 175°
2026-05-05 02:16 -4.42328 114.94631 33907 ft 475 kts 175°
2026-05-05 02:17 -4.48922 114.95000 33906 ft 475 kts 175°
2026-05-05 02:17 -4.55530 114.95371 33906 ft 476 kts 175°
2026-05-05 02:18 -4.62147 114.95744 33901 ft 476 kts 175°
2026-05-05 02:18 -4.68761 114.96119 33903 ft 476 kts 175°
2026-05-05 02:19 -4.75374 114.96486 33909 ft 476 kts 175°
2026-05-05 02:19 -4.81994 114.96860 33906 ft 476 kts 175°
2026-05-05 02:20 -4.88609 114.97232 33902 ft 476 kts 175°
2026-05-05 02:20 -4.95229 114.97602 33903 ft 476 kts 175°
2026-05-05 02:21 -5.01849 114.97973 33905 ft 476 kts 175°
2026-05-05 02:21 -5.08468 114.98346 33903 ft 476 kts 175°
2026-05-05 02:22 -5.15089 114.98717 33907 ft 476 kts 175°
2026-05-05 02:22 -5.21707 114.99093 33906 ft 476 kts 175°
2026-05-05 02:23 -5.28330 114.99465 33905 ft 477 kts 175°
2026-05-05 02:23 -5.34958 114.99837 33905 ft 477 kts 175°
2026-05-05 02:24 -5.41584 115.00211 33905 ft 477 kts 175°
2026-05-05 02:24 -5.48210 115.00582 33914 ft 477 kts 175°
2026-05-05 02:25 -5.54794 115.00951 33910 ft 478 kts 175°
2026-05-05 02:25 -5.61434 115.01327 33910 ft 478 kts 175°
2026-05-05 02:26 -5.68076 115.01703 33908 ft 478 kts 175°
2026-05-05 02:26 -5.74713 115.02077 33909 ft 478 kts 175°
2026-05-05 02:27 -5.81349 115.02450 33913 ft 478 kts 175°
2026-05-05 02:27 -5.87988 115.02824 33912 ft 478 kts 175°
2026-05-05 02:28 -5.94649 115.03200 33911 ft 480 kts 175°
2026-05-05 02:28 -6.01320 115.03577 33912 ft 480 kts 175°
2026-05-05 02:29 -6.07992 115.03954 33908 ft 480 kts 175°
2026-05-05 02:29 -6.14664 115.04322 33909 ft 480 kts 175°
2026-05-05 02:30 -6.21337 115.04682 33914 ft 480 kts 175°
2026-05-05 02:30 -6.28020 115.05053 33915 ft 481 kts 175°
2026-05-05 02:31 -6.34708 115.05428 33913 ft 481 kts 175°
2026-05-05 02:31 -6.41395 115.05806 33913 ft 481 kts 175°
2026-05-05 02:32 -6.48039 115.06184 33915 ft 481 kts 176°
2026-05-05 02:32 -6.54728 115.06563 33914 ft 481 kts 175°
2026-05-05 02:33 -6.61417 115.06938 33916 ft 481 kts 176°
2026-05-05 02:33 -6.68104 115.07314 33913 ft 481 kts 176°
2026-05-05 02:34 -6.74794 115.07695 33907 ft 481 kts 175°
2026-05-05 02:34 -6.81483 115.08072 33911 ft 481 kts 175°
2026-05-05 02:35 -6.88163 115.08549 33914 ft 481 kts 175°
2026-05-05 02:35 -6.94845 115.09049 33919 ft 482 kts 175°
2026-05-05 02:36 -7.01530 115.09553 33917 ft 482 kts 175°
2026-05-05 02:36 -7.08219 115.10054 33917 ft 482 kts 175°
2026-05-05 02:37 -7.14907 115.10560 33918 ft 482 kts 175°
2026-05-05 02:37 -7.21500 115.11060 33912 ft 460 kts 175°
2026-05-05 02:37 -7.24659 115.11298 33623 ft 452 kts 175°
2026-05-05 02:38 -7.27786 115.11534 33124 ft 449 kts 175°
2026-05-05 02:38 -7.30895 115.11769 32525 ft 447 kts 175°
2026-05-05 02:38 -7.33988 115.12002 31921 ft 445 kts 175°
2026-05-05 02:38 -7.37071 115.12234 31305 ft 444 kts 175°
2026-05-05 02:39 -7.40142 115.12466 30715 ft 441 kts 175°
2026-05-05 02:39 -7.43157 115.12690 30137 ft 439 kts 176°
2026-05-05 02:39 -7.46198 115.12916 29447 ft 436 kts 176°
2026-05-05 02:39 -7.49207 115.13140 28774 ft 432 kts 175°
2026-05-05 02:40 -7.52182 115.13362 28151 ft 426 kts 175°
2026-05-05 02:40 -7.55120 115.13582 27590 ft 420 kts 175°
2026-05-05 02:40 -7.58017 115.13800 27026 ft 415 kts 175°
2026-05-05 02:40 -7.60879 115.14015 26447 ft 410 kts 175°
2026-05-05 02:41 -7.63711 115.14227 25897 ft 406 kts 175°
2026-05-05 02:41 -7.66515 115.14435 25342 ft 402 kts 175°
2026-05-05 02:41 -7.69289 115.14641 24802 ft 398 kts 175°
2026-05-05 02:41 -7.72042 115.14847 24245 ft 395 kts 175°
2026-05-05 02:42 -7.74776 115.15052 23690 ft 393 kts 175°
2026-05-05 02:42 -7.77494 115.15258 23086 ft 390 kts 175°
2026-05-05 02:42 -7.80189 115.15463 22490 ft 387 kts 175°
2026-05-05 02:42 -7.82858 115.15663 21903 ft 383 kts 175°
2026-05-05 02:43 -7.85508 115.15670 21335 ft 380 kts 187°
2026-05-05 02:43 -7.88016 115.14912 20793 ft 377 kts 206°
2026-05-05 02:43 -7.90121 115.13375 20274 ft 374 kts 225°
2026-05-05 02:43 -7.91696 115.11300 19779 ft 371 kts 236°
2026-05-05 02:44 -7.93099 115.09133 19312 ft 367 kts 236°
2026-05-05 02:44 -7.94496 115.06990 18850 ft 365 kts 236°
2026-05-05 02:44 -7.95913 115.04868 18392 ft 365 kts 235°
2026-05-05 02:44 -7.97339 115.02758 17899 ft 362 kts 235°
2026-05-05 02:45 -7.98756 115.00678 17416 ft 357 kts 234°
2026-05-05 02:45 -8.00144 114.98642 16942 ft 357 kts 234°
2026-05-05 02:45 -8.01552 114.96583 16476 ft 357 kts 234°
2026-05-05 02:45 -8.02964 114.94519 16033 ft 357 kts 234°
2026-05-05 02:46 -8.04373 114.92452 15609 ft 357 kts 234°
2026-05-05 02:46 -8.05782 114.90388 15190 ft 357 kts 234°
2026-05-05 02:46 -8.07192 114.88324 14809 ft 356 kts 234°
2026-05-05 02:46 -8.08590 114.86278 14527 ft 352 kts 234°
2026-05-05 02:47 -8.09970 114.84254 14278 ft 346 kts 234°
2026-05-05 02:47 -8.11326 114.82266 14055 ft 343 kts 234°
2026-05-05 02:47 -8.12675 114.80287 13831 ft 342 kts 234°
2026-05-05 02:47 -8.14019 114.78313 13597 ft 341 kts 234°
2026-05-05 02:48 -8.15365 114.76345 13335 ft 340 kts 234°
2026-05-05 02:48 -8.16702 114.74386 13085 ft 339 kts 234°
2026-05-05 02:48 -8.18033 114.72430 12855 ft 338 kts 234°
2026-05-05 02:48 -8.19360 114.70481 12640 ft 336 kts 234°
2026-05-05 02:49 -8.20682 114.68538 12424 ft 335 kts 234°
2026-05-05 02:49 -8.22000 114.66602 12218 ft 335 kts 234°
2026-05-05 02:49 -8.23324 114.64675 12018 ft 333 kts 232°
2026-05-05 02:49 -8.24956 114.63042 11941 ft 331 kts 212°
2026-05-05 02:50 -8.27058 114.62167 11929 ft 325 kts 189°
2026-05-05 02:50 -8.29267 114.62180 11547 ft 315 kts 166°
2026-05-05 02:50 -8.31299 114.62927 11151 ft 309 kts 154°
2026-05-05 02:50 -8.33242 114.63831 10776 ft 305 kts 154°
2026-05-05 02:51 -8.35126 114.64693 10527 ft 297 kts 154°
2026-05-05 02:51 -8.37010 114.65534 10098 ft 296 kts 154°
2026-05-05 02:51 -8.38898 114.66366 9637 ft 295 kts 154°
2026-05-05 02:51 -8.40774 114.67186 9195 ft 293 kts 155°
2026-05-05 02:52 -8.42639 114.68002 8742 ft 291 kts 155°
2026-05-05 02:52 -8.44492 114.68811 8303 ft 289 kts 154°
2026-05-05 02:52 -8.46335 114.69615 7881 ft 287 kts 155°
2026-05-05 02:52 -8.48158 114.70412 7475 ft 285 kts 154°
2026-05-05 02:53 -8.49963 114.71201 7147 ft 281 kts 154°
2026-05-05 02:53 -8.51748 114.71980 6885 ft 278 kts 154°
2026-05-05 02:53 -8.53508 114.72750 6637 ft 274 kts 154°
2026-05-05 02:53 -8.55215 114.73569 6381 ft 269 kts 146°
2026-05-05 02:54 -8.56686 114.74709 6127 ft 264 kts 138°
2026-05-05 02:54 -8.58062 114.75920 5871 ft 260 kts 137°
2026-05-05 02:54 -8.59415 114.77109 5625 ft 255 kts 137°
2026-05-05 02:54 -8.60750 114.78273 5384 ft 251 kts 136°
2026-05-05 02:55 -8.62060 114.79416 5132 ft 247 kts 136°
2026-05-05 02:55 -8.63351 114.80545 4901 ft 245 kts 136°
2026-05-05 02:55 -8.64639 114.81668 4674 ft 244 kts 136°
2026-05-05 02:55 -8.65915 114.82780 4423 ft 241 kts 136°
2026-05-05 02:56 -8.67181 114.83878 4185 ft 239 kts 137°
2026-05-05 02:56 -8.68442 114.84972 3955 ft 239 kts 137°
2026-05-05 02:56 -8.69704 114.86064 3720 ft 240 kts 138°
2026-05-05 02:56 -8.70966 114.87157 3492 ft 238 kts 137°
2026-05-05 02:57 -8.72218 114.88245 3261 ft 238 kts 138°
2026-05-05 02:57 -8.73482 114.89339 3038 ft 247 kts 138°
2026-05-05 02:57 -8.74727 114.90475 2939 ft 233 kts 131°
2026-05-05 02:57 -8.75474 114.91822 2907 ft 211 kts 103°
2026-05-05 02:58 -8.75592 114.93238 2813 ft 195 kts 90°
2026-05-05 02:58 -8.75556 114.94556 2676 ft 180 kts 89°
2026-05-05 02:58 -8.75540 114.95383 2503 ft 176 kts 90°
2026-05-05 02:58 -8.75526 114.96620 2181 ft 176 kts 91°
2026-05-05 02:59 -8.75532 114.97851 2090 ft 174 kts 92°
2026-05-05 02:59 -8.75534 114.99069 2152 ft 169 kts 91°
2026-05-05 02:59 -8.75506 115.00190 2251 ft 156 kts 90°
2026-05-05 02:59 -8.75461 115.01281 2076 ft 155 kts 89°
2026-05-05 03:00 -8.75432 115.02363 1829 ft 152 kts 89°
2026-05-05 03:00 -8.75386 115.03335 1751 ft 128 kts 91°
2026-05-05 03:00 -8.75349 115.04226 1755 ft 127 kts 92°
2026-05-05 03:00 -8.75309 115.05113 1778 ft 126 kts 90°
2026-05-05 03:01 -8.75283 115.05992 1791 ft 125 kts 90°
2026-05-05 03:01 -8.75240 115.06876 1728 ft 127 kts 90°
2026-05-05 03:01 -8.75204 115.07769 1551 ft 128 kts 90°
2026-05-05 03:01 -8.75169 115.08658 1372 ft 125 kts 90°
2026-05-05 03:02 -8.75135 115.09528 1193 ft 126 kts 90°
2026-05-05 03:02 -8.75100 115.10401 1018 ft 122 kts 90°
2026-05-05 03:02 -8.75066 115.11255 855 ft 122 kts 90°
2026-05-05 03:02 -8.75015 115.12113 710 ft 123 kts 89°
2026-05-05 03:03 -8.74956 115.12984 531 ft 123 kts 91°
2026-05-05 03:03 -8.74943 115.13828 387 ft 119 kts 90°
2026-05-05 03:03 -8.74930 115.14675 238 ft 121 kts 88°
2026-05-05 03:03 -8.74888 115.15535 55 ft 124 kts 91°
2026-05-05 03:04 -8.74859 115.16324 33 ft 87 kts 89°
2026-05-05 03:04 -8.74847 115.16648 33 ft 22 kts 83°
2026-05-05 03:04 -8.74800 115.16778 32 ft 19 kts 62°
2026-05-05 03:04 -8.74743 115.16854 35 ft 14 kts 23°
2026-05-05 03:05 -8.74670 115.16918 37 ft 17 kts 80°
2026-05-05 03:05 -8.74666 115.17039 37 ft 13 kts 88°
2026-05-05 03:05 -8.74665 115.17064 37 ft 0 kts 88°
2026-05-05 03:05 -8.74665 115.17072 37 ft 9 kts 88°
2026-05-05 03:06 -8.74661 115.17173 37 ft 13 kts 88°
2026-05-05 03:06 -8.74657 115.17255 37 ft 13 kts 87°
2026-05-05 03:06 -8.74639 115.17315 38 ft 7 kts 22°
2026-05-05 03:06 -8.74609 115.17318 38 ft 2 kts 353°
2026-05-05 03:07 -8.74587 115.17316 38 ft 5 kts 357°
2026-05-05 03:07 -8.74546 115.17314 38 ft 7 kts 358°
2026-05-05 03:07 -8.74520 115.17312 38 ft 0 kts 355°